Vertical_Velocity
0 -2 -1 -2 -0 -2 -3 -0 2 -0 -1 -3 -1 -7 6 -2 -3 -7 5 10 2 1 -9 -8 5 0 -1 -6 -2 1 -6 0 3 21 4 2 1 -1 -3 -1 -1 -2 0 -1 3 6 -2
1 -2 -2 -1 0 1 -3 -2 1 0 -0 -2 -2 -4 4 -4 -2 -3 -2 -3 -4 10 1 3 0 8 -9 -8 -3 0 2 1 1 -10 -9 5 -2 5 -1 -1 -4 -1 0 1 -0 1 -0
0 -1 -2 -2 -1 0 -1 -2 -2 -0 1 -1 -3 0 -5 -4 -1 7 -1 3 -3 1 3 -4 4 2 -8 -2 -0 3 -0 -2 -20 -46 4 -0 1 -0 7 -0 4 1 -5 -2 -3 -1 0
0 -1 -1 -0 -2 0 -0 -1 -1 -0 0 1 -0 -2 -7 1 -2 2 3 6 -6 -2 -2 3 7 2 -4 -11 3 8 10 0 -14 20 20 -10 6 3 5 5 -1 -4 -6 -3 -4 -1 1
-0 -1 -0 -0 -1 -2 -1 -0 -1 -3 -1 1 1 -2 0 1 -1 -3 1 -4 -1 8 1 -1 -0 8 2 8 5 5 -10 -0 20 12 -17 13 5 -1 3 -4 -4 -3 -2 -1 -1 1 -0
-1 -1 -1 -1 1 -0 -2 -1 -1 -0 -1 -2 0 1 1 -7 2 -4 -3 0 5 -6 11 6 5 -8 18 8 -2 9 8 10 16 -19 13 4 -1 -3 -3 -4 -6 -2 -1 0 -1 -1 -1
-0 -1 -0 0 -1 -0 -0 -2 -1 -1 -1 -3 -4 -2 -1 4 -2 -5 -8 -4 -3 -10 -5 6 5 4 6 5 -0 -18 6 2 24 9 -2 -1 -13 -1 0 0 -1 -2 -2 -1 0 -1 -1
1 0 0 0 0 1 0 0 -2 -1 0 -1 -2 -4 -1 -2 -2 -2 0 -11 0 -6 -1 10 9 -2 7 -1 -1 -6 -2 2 -3 -1 -0 -9 -1 -0 0 0 -1 -0 -1 1 0 -0 -1
0 -0 -0 1 0 -0 0 3 1 -2 -2 -0 -0 -1 -4 -2 0 -3 -2 -0 1 -1 -4 -4 -0 -1 -4 -1 -1 2 2 4 -2 -3 -0 -4 -0 -0 -2 -1 -4 0 -3 0 -4 0 -1
-1 1 1 1 -0 -0 0 1 3 -0 -2 0 1 1 -1 0 1 -3 1 0 -3 -1 -9 -13 -10 -1 -3 1 -5 3 -1 -1 -3 -1 -1 0 -2 -1 -1 -1 -1 -2 0 -1 -1 -3 -5
1 -0 0 -0 0 1 1 1 0 1 -1 -1 -0 0 -0 4 -0 -3 -2 -0 2 0 -12 -22 -10 -4 1 -5 1 -8 4 -5 1 1 -9 -0 -1 -1 -3 2 0 -1 -1 -1 -1 -1 -4
0 0 0 1 0 -0 2 2 -0 0 0 -0 -1 -1 -0 0 0 -1 -1 -2 -2 -26 -13 -9 -0 -3 -5 -2 -2 -1 -3 -8 -0 -4 -3 1 0 -2 0 0 0 -0 -3 -4 -2 -2 -6
-1 -0 -1 0 1 1 -1 1 2 1 1 -1 0 -0 0 -1 -1 -0 1 -1 -17 -13 -12 -7 -2 -1 -0 -1 -3 -2 -2 -3 -3 -9 -4 -5 -1 -2 0 -4 -4 -6 -5 -5 -9 -8 -7
-1 -0 -1 -0 -0 1 1 1 -0 1 1 -0 -1 1 -0 1 -1 -2 1 -13 -14 -5 -1 -2 0 -2 -2 -1 -0 -1 -1 -2 -3 -2 -2 -3 -14 -2 -3 -2 -2 1 -4 -8 -5 -3 -4
-1 -1 -1 -1 -0 -0 0 0 2 1 1 0 -0 -1 -2 -2 1 1 0 -8 -10 -2 0 -0 -3 -2 -2 -1 -2 -3 -0 -0 1 0 -6 -2 -1 -2 -1 -0 -5 -2 -3 -3 -5 -1 -5
-1 -1 -1 -1 -2 0 -0 -0 1 2 1 0 -1 -0 -3 0 -1 0 -11 -2 -1 0 -0 -1 -1 -1 -0 -1 -3 -3 -1 0 -0 -0 0 -2 -4 -1 -1 0 -1 -2 -4 -10 -5 -4 -2
-1 -1 -1 0 -1 -3 -1 -2 -0 2 2 1 2 -1 3 0 -0 -2 -5 -1 -0 1 0 -2 -0 -1 0 -1 0 0 0 -4 -1 -2 -1 -0 -7 -7 -4 -2 -4 -2 -0 -1 -7 -4 -5
1 -1 -1 -1 -0 -1 -2 -1 -3 0 1 -0 -1 -7 0 -0 -10 1 -1 1 1 -0 -0 -0 0 -0 -0 -0 -0 -1 -1 2 1 2 0 2 -3 -1 -3 -2 -1 -1 -2 -3 -7 -4 -1
0 1 1 -1 -2 -1 -1 -2 -1 -0 -1 1 -2 -1 1 -2 -5 -1 -0 0 -0 -1 0 -1 0 0 -0 -0 -2 -1 0 -0 -1 -1 -1 -1 -2 -3 -12 -12 -5 0 -1 -1 -1 -2 -2
0 0 1 -1 -1 -1 -1 -2 -2 -1 -0 -0 -1 -7 -2 -4 -1 -3 -1 0 -0 -0 -0 0 0 -0 -1 -1 -1 -1 0 0 -0 -0 2 -0 -0 -5 -8 -5 -3 1 0 -0 -3 -1 -3
-1 1 0 -1 -2 -2 -2 -3 -2 -2 -2 -1 -0 -1 -0 -3 -3 -1 -2 -0 -0 -1 0 -0 -3 0 0 -0 -0 -0 -0 -1 -1 1 0 -4 -1 -0 -1 -1 1 -1 -1 -0 1 -3 -3
0 0 -1 2 3 -1 -2 -2 -1 -5 -3 5 -1 -2 0 -0 0 -1 -1 1 -0 1 -2 -1 -0 -0 0 0 0 -1 -1 -1 -2 -1 -0 -0 -2 -1 -2 -0 0 0 -0 0 -0 -0 1
-2 -0 0 -3 -1 0 0 -1 -2 -2 -3 -5 -2 2 5 0 1 -2 -3 -1 -1 -1 1 -1 -1 -0 -1 1 0 1 2 1 -1 -4 -0 -1 -2 -2 -3 0 -1 -2 -6 -2 -1 -0 -4
-1 -2 -0 1 -1 -3 -1 1 1 -3 0 -0 -0 -3 -2 -3 -0 -2 -0 -0 -0 -2 -4 -0 -3 -1 -2 -1 -2 2 2 1 1 1 -0 -1 -1 -1 -2 -3 -5 -16 -1 -2 -3 -2 -0
-2 -3 -1 3 1 -1 -4 -2 -1 1 1 2 -3 -0 1 -1 0 -1 1 -0 0 1 0 -0 1 5 3 -4 -2 -2 -4 -3 -0 0 -0 -1 -2 -1 -2 -0 -11 -1 0 -1 -2 -3 0
0 -1 -3 -1 0 2 -0 -4 -0 -1 -1 0 -1 1 -1 -0 -5 1 -1 0 -1 -0 -3 -1 0 3 2 -1 -1 -2 -2 -3 -0 -1 -1 -1 -1 -4 0 -0 -1 -4 -0 1 0 -4 1
0 1 0 -0 -2 -0 1 0 -2 -1 -3 0 0 2 -1 -2 1 1 -2 -3 1 0 -2 1 -1 -3 -0 -0 0 -1 -2 -5 -2 -1 0 1 1 -2 -0 -1 -10 -3 -1 -0 -5 -11 -0
-1 2 1 -1 2 2 -1 -3 -0 1 -0 -2 1 1 0 -1 -3 -0 1 -0 -2 1 -2 1 -3 1 -1 -1 1 -2 0 -3 -1 -3 -4 -5 -4 -1 1 1 -9 -0 -1 -3 -7 -1 -3
-3 1 2 -2 1 5 0 0 2 2 -0 0 -3 -1 5 -3 -3 1 1 -2 -1 1 3 2 -0 -1 -2 -3 -0 -1 -1 -1 -1 -2 0 -6 -6 -8 -9 -13 -2 -0 0 -2 -1 -1 -0
Height
1540 1538 1536 1533 1529 1527 1525 1523 1520 1517 1512 1509 1505 1501 1498 1493 1488 1484 1480 1478 1472 1469 1468 1467 1468 1468 1469 1471 1473 1475 1476 1478 1482 1486 1488 1490 1494 1498 1499 1501 1504 1509 1509 1510 1508 1506 1509
1541 1539 1536 1533 1530 1527 1525 1523 1520 1518 1514 1510 1507 1503 1500 1496 1492 1489 1485 1482 1479 1475 1473 1472 1470 1471 1470 1473 1476 1476 1476 1478 1483 1487 1489 1492 1495 1498 1499 1502 1504 1509 1510 1512 1512 1511 1512
1543 1540 1537 1534 1532 1528 1525 1523 1521 1518 1516 1512 1509 1504 1502 1499 1495 1492 1489 1486 1482 1479 1478 1475 1475 1474 1470 1476 1477 1478 1477 1480 1483 1490 1490 1493 1495 1498 1499 1501 1507 1509 1514 1515 1516 1517 1518
1546 1543 1539 1536 1533 1529 1525 1523 1521 1519 1516 1513 1511 1508 1504 1502 1498 1495 1492 1489 1486 1483 1481 1480 1479 1478 1477 1481 1481 1482 1484 1488 1488 1485 1491 1494 1495 1498 1499 1503 1507 1513 1519 1528 1522 1520 1520
1547 1545 1542 1538 1534 1530 1526 1523 1519 1517 1516 1513 1511 1509 1506 1503 1501 1498 1496 1493 1489 1487 1484 1482 1481 1480 1485 1487 1485 1488 1489 1489 1490 1491 1494 1495 1495 1499 1500 1507 1518 1519 1535 1528 1525 1522 1521
1549 1546 1543 1539 1535 1531 1527 1523 1519 1517 1514 1513 1511 1508 1506 1504 1502 1500 1498 1496 1492 1489 1486 1485 1483 1484 1492 1493 1488 1488 1488 1488 1489 1493 1493 1494 1495 1501 1507 1511 1530 1523 1530 1528 1529 1526 1524
1550 1547 1544 1540 1536 1532 1527 1523 1518 1515 1513 1512 1511 1510 1507 1505 1503 1501 1499 1497 1498 1496 1490 1493 1494 1488 1491 1496 1495 1491 1488 1494 1491 1491 1493 1494 1506 1521 1513 1510 1509 1513 1521 1528 1528 1526 1526
1551 1548 1545 1541 1537 1533 1528 1523 1518 1514 1512 1511 1509 1509 1508 1507 1505 1503 1502 1499 1501 1503 1498 1496 1496 1495 1492 1493 1493 1494 1493 1493 1491 1496 1495 1504 1514 1510 1509 1508 1510 1514 1523 1529 1528 1527 1528
1552 1548 1545 1541 1538 1533 1529 1523 1518 1513 1511 1510 1508 1507 1508 1507 1506 1506 1504 1503 1502 1501 1501 1500 1499 1498 1498 1497 1497 1496 1496 1494 1496 1502 1505 1512 1514 1509 1510 1513 1513 1525 1524 1527 1528 1529 1529
1552 1549 1545 1542 1538 1534 1530 1524 1518 1513 1511 1510 1508 1506 1505 1506 1509 1506 1505 1504 1504 1503 1516 1513 1504 1503 1502 1500 1500 1499 1497 1499 1500 1506 1508 1516 1515 1513 1515 1517 1520 1525 1524 1523 1527 1536 1550
1552 1549 1545 1542 1539 1535 1531 1525 1519 1514 1512 1511 1508 1505 1503 1504 1505 1505 1506 1505 1504 1505 1544 1516 1510 1508 1504 1503 1506 1504 1502 1501 1507 1509 1510 1524 1521 1521 1522 1527 1523 1526 1524 1525 1530 1541 1548
1552 1549 1546 1542 1539 1536 1531 1526 1521 1516 1513 1511 1509 1505 1503 1504 1504 1505 1505 1504 1506 1523 1547 1523 1514 1512 1510 1507 1508 1507 1505 1507 1511 1514 1515 1521 1521 1523 1526 1524 1524 1524 1527 1533 1540 1549 1571
1552 1549 1546 1543 1540 1536 1531 1527 1522 1517 1514 1512 1510 1507 1504 1504 1505 1504 1505 1506 1522 1542 1529 1525 1520 1516 1516 1515 1512 1512 1513 1513 1517 1530 1535 1527 1528 1528 1526 1525 1526 1529 1538 1571 1562 1575 1566
1552 1549 1546 1543 1540 1536 1532 1527 1523 1519 1515 1513 1512 1509 1507 1505 1505 1505 1506 1509 1536 1536 1528 1521 1519 1518 1519 1518 1516 1517 1517 1524 1518 1521 1540 1546 1551 1533 1529 1532 1535 1536 1541 1566 1559 1567 1565
1551 1549 1546 1543 1540 1536 1532 1528 1524 1519 1515 1513 1512 1511 1509 1507 1506 1505 1506 1529 1538 1534 1525 1524 1520 1521 1520 1516 1516 1519 1523 1525 1523 1522 1527 1539 1539 1534 1533 1533 1535 1537 1548 1542 1559 1574 1575
1551 1549 1546 1544 1540 1536 1533 1528 1524 1520 1516 1512 1511 1510 1509 1508 1507 1506 1509 1528 1527 1525 1523 1523 1525 1522 1524 1521 1519 1519 1522 1523 1525 1524 1522 1524 1537 1535 1534 1534 1535 1534 1538 1552 1562 1559 1559
1550 1548 1546 1544 1541 1537 1533 1530 1525 1521 1516 1512 1510 1510 1511 1509 1508 1508 1527 1530 1525 1524 1523 1524 1525 1523 1523 1524 1523 1524 1527 1524 1521 1520 1519 1523 1529 1540 1535 1536 1536 1539 1540 1543 1549 1556 1562
1548 1547 1545 1543 1540 1538 1534 1531 1527 1522 1517 1513 1512 1513 1512 1510 1511 1519 1527 1525 1525 1524 1524 1524 1524 1523 1523 1523 1525 1527 1529 1529 1525 1524 1525 1527 1535 1551 1536 1534 1533 1533 1534 1539 1555 1549 1555
1546 1545 1543 1541 1539 1537 1534 1531 1528 1523 1519 1515 1513 1514 1514 1510 1526 1529 1527 1527 1527 1526 1526 1525 1524 1524 1523 1524 1527 1526 1528 1528 1527 1528 1531 1530 1536 1556 1541 1538 1533 1533 1532 1533 1539 1545 1546
1543 1543 1541 1540 1538 1536 1533 1531 1528 1525 1521 1518 1517 1519 1516 1515 1520 1524 1525 1528 1528 1528 1528 1527 1526 1525 1524 1525 1524 1527 1528 1529 1528 1528 1529 1529 1536 1538 1543 1532 1533 1535 1532 1531 1533 1551 1537
1541 1540 1540 1539 1537 1535 1532 1530 1527 1524 1521 1520 1518 1520 1520 1526 1523 1523 1525 1526 1526 1528 1528 1528 1528 1527 1527 1527 1526 1526 1528 1529 1529 1529 1529 1531 1535 1539 1534 1532 1531 1529 1528 1530 1533 1528 1528
1538 1538 1537 1536 1535 1534 1532 1530 1528 1525 1522 1521 1520 1520 1521 1521 1522 1523 1525 1526 1526 1526 1527 1529 1530 1528 1528 1528 1528 1528 1527 1530 1529 1530 1530 1532 1536 1535 1533 1527 1529 1529 1525 1523 1521 1520 1519
1534 1535 1534 1534 1534 1533 1531 1530 1528 1526 1524 1523 1523 1523 1522 1521 1521 1522 1522 1521 1522 1522 1526 1526 1527 1529 1529 1529 1529 1529 1529 1528 1527 1529 1533 1535 1539 1545 1537 1534 1533 1527 1513 1511 1512 1511 1508
1531 1531 1531 1531 1531 1531 1530 1529 1527 1526 1525 1524 1523 1523 1525 1525 1522 1520 1520 1520 1519 1520 1519 1518 1521 1525 1527 1526 1527 1528 1528 1528 1528 1529 1530 1535 1537 1543 1546 1538 1544 1504 1500 1500 1504 1501 1502
1528 1527 1528 1528 1528 1528 1528 1528 1527 1526 1525 1524 1524 1525 1522 1523 1524 1522 1521 1520 1521 1523 1521 1521 1521 1518 1518 1520 1526 1529 1532 1531 1532 1532 1531 1530 1535 1541 1545 1548 1520 1497 1498 1500 1502 1498 1499
1524 1524 1524 1525 1526 1526 1526 1525 1526 1525 1525 1524 1524 1523 1524 1523 1519 1519 1521 1521 1522 1522 1523 1523 1522 1521 1521 1521 1522 1522 1525 1523 1528 1533 1533 1533 1534 1537 1544 1541 1523 1500 1498 1498 1498 1506 1499
1518 1519 1520 1521 1522 1522 1523 1523 1523 1523 1523 1522 1522 1522 1521 1523 1520 1519 1520 1520 1518 1519 1520 1518 1519 1522 1525 1527 1525 1525 1521 1516 1520 1523 1531 1532 1534 1535 1540 1541 1522 1503 1499 1498 1504 1506 1499
1512 1513 1515 1517 1517 1518 1518 1519 1520 1521 1521 1522 1521 1520 1520 1519 1518 1518 1519 1519 1519 1519 1520 1518 1520 1519 1523 1528 1531 1526 1524 1517 1517 1517 1523 1524 1532 1533 1534 1536 1529 1496 1500 1502 1500 1498 1498
1503 1506 1508 1510 1512 1513 1514 1516 1516 1516 1517 1518 1519 1519 1518 1517 1515 1514 1514 1515 1517 1518 1519 1517 1514 1513 1513 1522 1526 1525 1525 1527 1522 1519 1516 1523 1515 1519 1517 1508 1496 1496 1494 1493 1494 1494 1493